SAUDISAT 1A

导读

SAUDISAT 1A是沙特阿拉伯研制的民用微型通信卫星,由阿卜杜勒阿齐兹国王科技城下属空间研究所开发,于2000年9月26日由第聂伯运载火箭从哈萨克斯坦拜科努尔航天发射场成功发射,卫星质量仅10千克,运行在高度约644-651公里、倾角64.56度的近地轨道,搭载业余存储转发通信载荷,是沙特早期航天发展的标志性小卫星,标志着沙特正式进入独立开发商用微小卫星领域。

基本信息
目录编号:
26545
目录名称:
SAUDISAT 1A
国际标识:
2000-057A
轨道中心:
EARTH
卫星名称:
SAUDISAT 1A
卫星全名:
--
卫星状态:
在轨 (已飞行9475 天)
发射日期:
2000-09-26 UTC
国别 :
(SA)
星等 :
--
轨道信息
数据来源 国际轨道数据
星历时间: 2026-09-05T05:44:02+0800
7小时前
查看轨道信息
半长轴: 6965.659km
偏心率: 0.0048822
轨道倾角: 64.551°
近地点辐角 290.275°
升交点赤经 46.847°
平近点角 69.312°
近地点: 553.514km
远地点: 621.53km
周期: 96.428分钟
每日圈数: 14.933427
详细信息
使用方式:
暂无
2D轨道图
3D轨道图
轨道高度分析图
轨道倾角分析图
轨道综合分析图
查看轨道综合分析图
交会数据列表
事件ID 空间交会对象 最接近时刻(TCA) 交会距离 交会风险概率(CRP) 交会风险指数(CRI) 操作
CDM_260907-150802-654504-097522
2026-09-07T
15:08:38+0000
0.735 km
远距离
5.17712E-5 中风险 0.69
CDM_260905-091202-654505-776026
BB3 (57760)
2026-09-05T
09:12:20+0000
2.603 km
极远距离
1.569431E-6 低风险 0.39
CDM_260907-200302-654505-215521
OBJECT C (52155)
2026-09-07T
20:03:27+0000
2.931 km
极远距离
1.22579E-6 低风险 0.37